• în Republica Moldova
  • Lista ţărilor
  • Pe 7 zile
  • Temperatura apei
  • Hartă satelitară
  • Meteo pe hartă
  • Widget-uri
  • user-avatar
    Intrare

    Meteo pe oră la Solden

    Astăzi, 17 Noiembrie, Vineri

    Timp Temperatura Precipitaţii Vânt Presiune Umiditate
    00:00 -6°C° 0 mm 1 m/s 581 mmHg 77%
    01:00 -6°C° 0 mm 1 m/s 580 mmHg 77%
    02:00 -7°C° 0 mm 1 m/s 580 mmHg 75%
    03:00 -8°C° 0 mm 2 m/s 580 mmHg 74%
    04:00 -8°C° 0 mm 2 m/s 580 mmHg 72%
    05:00 -8°C° 0 mm 2 m/s 580 mmHg 72%
    06:00 -8°C° 0 mm 2 m/s 580 mmHg 71%
    07:00 -9°C° 0 mm 2 m/s 580 mmHg 74%
    08:00 -7°C° 0 mm 2 m/s 581 mmHg 72%
    09:00 -5°C° 0 mm 2 m/s 582 mmHg 70%
    10:00 -3°C° 0 mm 2 m/s 583 mmHg 68%
    11:00 -2°C° 0 mm 2 m/s 583 mmHg 69%
    12:00 -1°C° 0 mm 2 m/s 583 mmHg 69%
    13:00 +1°C° 0 mm 2 m/s 583 mmHg 68%
    14:00 -1°C° 0 mm 2 m/s 583 mmHg 72%
    15:00 -2°C° 0 mm 2 m/s 582 mmHg 76%
    16:00 -4°C° 0 mm 2 m/s 582 mmHg 81%
    17:00 -5°C° 0 mm 2 m/s 581 mmHg 83%
    18:00 -6°C° 0 mm 2 m/s 581 mmHg 85%
    19:00 -8°C° 0 mm 2 m/s 580 mmHg 88%
    20:00 -7°C° 0 mm 1 m/s 580 mmHg 87%
    21:00 -7°C° 0 mm 1 m/s 580 mmHg 86%
    22:00 -7°C° 0 mm 1 m/s 580 mmHg 86%
    23:00 -8°C° 0 mm 1 m/s 580 mmHg 85%

    Mâine, 18 Noiembrie, Sâmbătă

    Timp Temperatura Precipitaţii Vânt Presiune Umiditate
    00:00 -8°C° 0 mm 1 m/s 580 mmHg 85%
    01:00 -8°C° 0 mm 1 m/s 580 mmHg 85%
    02:00 -8°C° 0 mm 1 m/s 579 mmHg 85%
    03:00 -9°C° 0 mm 1 m/s 579 mmHg 85%
    04:00 -9°C° 0 mm 1 m/s 579 mmHg 85%
    05:00 -9°C° 0 mm 1 m/s 579 mmHg 85%
    06:00 -9°C° 0 mm 1 m/s 579 mmHg 84%
    07:00 -12°C° 0 mm 2 m/s 578 mmHg 84%
    08:00 -8°C° 0 mm 1 m/s 579 mmHg 80%
    09:00 -6°C° 0 mm 1 m/s 580 mmHg 76%
    10:00 -3°C° 0 mm 1 m/s 581 mmHg 71%
    11:00 -2°C° 0 mm 1 m/s 581 mmHg 68%
    12:00 -1°C° 0 mm 1 m/s 582 mmHg 65%
    13:00 0°C° 0 mm 1 m/s 582 mmHg 62%
    14:00 -1°C° 0 mm 1 m/s 581 mmHg 67%
    15:00 -3°C° 0 mm 1 m/s 580 mmHg 71%
    16:00 -4°C° 0 mm 1 m/s 579 mmHg 76%
    17:00 -6°C° 0 mm 1 m/s 579 mmHg 77%
    18:00 -9°C° 0 mm 2 m/s 578 mmHg 78%
    19:00 -10°C° 0 mm 2 m/s 578 mmHg 80%
    20:00 -10°C° 0 mm 2 m/s 578 mmHg 75%
    21:00 -12°C° 0 mm 2 m/s 578 mmHg 70%
    22:00 -12°C° 0 mm 2 m/s 578 mmHg 66%
    23:00 -12°C° 0 mm 2 m/s 578 mmHg 64%

    Poimâine, 19 Noiembrie, Duminică

    Timp Temperatura Precipitaţii Vânt Presiune Umiditate
    00:00 -12°C° 0 mm 2 m/s 577 mmHg 62%
    01:00 -12°C° 0 mm 2 m/s 577 mmHg 60%
    02:00 -10°C° 0 mm 2 m/s 577 mmHg 59%
    03:00 -10°C° 0 mm 2 m/s 577 mmHg 58%
    04:00 -10°C° 0 mm 2 m/s 577 mmHg 56%
    05:00 -9°C° 0,1 mm 2 m/s 577 mmHg 60%
    06:00 -9°C° 0,1 mm 2 m/s 577 mmHg 64%
    07:00 -8°C° 0,1 mm 2 m/s 577 mmHg 68%
    08:00 -7°C° 0,2 mm 2 m/s 577 mmHg 69%
    09:00 -6°C° 0,2 mm 2 m/s 578 mmHg 70%
    10:00 -5°C° 0,2 mm 2 m/s 578 mmHg 71%
    11:00 -5°C° 0,1 mm 2 m/s 579 mmHg 68%
    12:00 -4°C° 0,1 mm 2 m/s 579 mmHg 65%
    13:00 -4°C° 0,1 mm 2 m/s 579 mmHg 62%
    14:00 -5°C° 0,1 mm 2 m/s 578 mmHg 65%
    15:00 -6°C° 0,1 mm 2 m/s 578 mmHg 69%
    16:00 -7°C° 0,1 mm 2 m/s 578 mmHg 73%
    17:00 -8°C° 0,1 mm 2 m/s 578 mmHg 74%
    18:00 -8°C° 0,1 mm 2 m/s 579 mmHg 76%
    19:00 -9°C° 0,1 mm 2 m/s 579 mmHg 78%
    20:00 -10°C° 0 mm 2 m/s 579 mmHg 79%
    21:00 -12°C° 0 mm 2 m/s 579 mmHg 80%
    22:00 -13°C° 0 mm 2 m/s 579 mmHg 81%
    23:00 -13°C° 0 mm 2 m/s 579 mmHg 80%

    20 Noiembrie, Luni

    Timp Temperatura Precipitaţii Vânt Presiune Umiditate
    00:00 -14°C° 0 mm 2 m/s 579 mmHg 79%
    01:00 -14°C° 0 mm 2 m/s 579 mmHg 78%
    02:00 -14°C° 0 mm 2 m/s 578 mmHg 75%
    03:00 -14°C° 0 mm 2 m/s 578 mmHg 71%
    04:00 -14°C° 0 mm 2 m/s 578 mmHg 68%
    05:00 -14°C° 0 mm 2 m/s 579 mmHg 65%
    06:00 -14°C° 0 mm 2 m/s 579 mmHg 62%
    07:00 -14°C° 0 mm 2 m/s 579 mmHg 58%
    08:00 -10°C° 0 mm 2 m/s 580 mmHg 55%
    09:00 -8°C° 0 mm 2 m/s 581 mmHg 52%
    10:00 -4°C° 0 mm 1 m/s 582 mmHg 49%
    11:00 -2°C° 0 mm 1 m/s 582 mmHg 49%
    12:00 -1°C° 0 mm 1 m/s 583 mmHg 48%
    13:00 0°C° 0 mm 1 m/s 583 mmHg 47%
    14:00 -1°C° 0,1 mm 1 m/s 582 mmHg 53%
    15:00 -2°C° 0,1 mm 1 m/s 581 mmHg 60%
    16:00 -3°C° 0,1 mm 1 m/s 581 mmHg 66%
    17:00 -4°C° 0 mm 1 m/s 580 mmHg 68%
    18:00 -7°C° 0 mm 2 m/s 580 mmHg 69%
    19:00 -8°C° 0 mm 2 m/s 579 mmHg 71%
    20:00 -8°C° 0 mm 2 m/s 579 mmHg 70%
    21:00 -8°C° 0 mm 2 m/s 579 mmHg 69%
    22:00 -8°C° 0 mm 2 m/s 579 mmHg 69%
    23:00 -8°C° 0 mm 2 m/s 579 mmHg 68%

    21 Noiembrie, Marţi

    Timp Temperatura Precipitaţii Vânt Presiune Umiditate
    00:00 -8°C° 0 mm 2 m/s 579 mmHg 68%
    01:00 -7°C° 0 mm 2 m/s 579 mmHg 67%
    02:00 -7°C° 0,2 mm 2 m/s 579 mmHg 69%
    03:00 -6°C° 0,2 mm 2 m/s 579 mmHg 71%
    04:00 -6°C° 0,2 mm 2 m/s 579 mmHg 74%
    05:00 -6°C° 0,1 mm 2 m/s 579 mmHg 76%
    06:00 -6°C° 0,1 mm 2 m/s 579 mmHg 78%
    07:00 -6°C° 0,1 mm 2 m/s 579 mmHg 79%
    08:00 -5°C° 0 mm 2 m/s 580 mmHg 77%
    09:00 -3°C° 0 mm 2 m/s 581 mmHg 75%
    10:00 -2°C° 0 mm 2 m/s 582 mmHg 73%
    11:00 +1°C° 0 mm 1 m/s 582 mmHg 73%
    12:00 +2°C° 0 mm 1 m/s 582 mmHg 73%
    13:00 +3°C° 0 mm 1 m/s 582 mmHg 72%
    14:00 +2°C° 0 mm 1 m/s 582 mmHg 76%
    15:00 +1°C° 0 mm 1 m/s 581 mmHg 79%
    16:00 0°C° 0 mm 1 m/s 581 mmHg 82%
    17:00 -1°C° 0 mm 1 m/s 581 mmHg 83%
    18:00 -2°C° 0 mm 1 m/s 580 mmHg 84%
    19:00 -3°C° 0 mm 1 m/s 580 mmHg 85%
    20:00 -3°C° 0 mm 1 m/s 580 mmHg 84%
    21:00 -4°C° 0 mm 1 m/s 580 mmHg 83%
    22:00 -4°C° 0 mm 1 m/s 580 mmHg 82%
    23:00 -4°C° 0 mm 1 m/s 580 mmHg 81%

    22 Noiembrie, Miercuri

    Timp Temperatura Precipitaţii Vânt Presiune Umiditate
    00:00 -4°C° 0 mm 1 m/s 580 mmHg 79%
    01:00 -4°C° 0 mm 1 m/s 580 mmHg 78%
    02:00 -4°C° 0 mm 1 m/s 580 mmHg 77%
    03:00 -4°C° 0 mm 1 m/s 580 mmHg 76%
    04:00 -4°C° 0 mm 1 m/s 580 mmHg 75%
    05:00 -4°C° 0 mm 1 m/s 580 mmHg 74%
    06:00 -4°C° 0 mm 1 m/s 580 mmHg 73%
    07:00 -4°C° 0 mm 1 m/s 580 mmHg 72%
    08:00 -2°C° 0 mm 1 m/s 581 mmHg 70%
    09:00 -1°C° 0 mm 1 m/s 582 mmHg 67%
    10:00 +1°C° 0 mm 1 m/s 583 mmHg 65%
    11:00 +2°C° 0 mm 1 m/s 583 mmHg 67%
    12:00 +3°C° 0 mm 1 m/s 583 mmHg 70%
    13:00 +4°C° 0 mm 1 m/s 583 mmHg 72%
    14:00 +2°C° 0 mm 1 m/s 582 mmHg 74%
    15:00 +1°C° 0 mm 1 m/s 582 mmHg 76%
    16:00 0°C° 0 mm 1 m/s 581 mmHg 79%
    17:00 -1°C° 0 mm 1 m/s 581 mmHg 80%
    18:00 -4°C° 0 mm 2 m/s 581 mmHg 81%
    19:00 -5°C° 0 mm 2 m/s 580 mmHg 82%
    20:00 -5°C° 0 mm 2 m/s 580 mmHg 82%
    21:00 -5°C° 0 mm 2 m/s 580 mmHg 82%
    22:00 -5°C° 0 mm 2 m/s 580 mmHg 81%
    23:00 -6°C° 0 mm 2 m/s 580 mmHg 81%
    Arată mai mult